Location: Six Mile Lake
(44.9000°N, 79.7170°W)
Time: 13:01:58
(UTC-04:00)

EO-79 - Pass Details

Date: 27 June 2022
Orbit: 588 x 603 km, 98.0° (Epoch: 18 August)

Event Time Altitude Azimuth Distance (km) Brightness Sun altitude
Rises 04:19:24 0° 357° (N) 2,851 ? -10.7°
Reaches altitude 10° 04:22:12 10° 337° (NNW) 1,947 ? -10.4°
Maximum altitude 04:24:54 17° 297° (WNW) 1,547 ? -10.1°
Drops below altitude 10° 04:27:36 10° 257° (WSW) 1,944 ? -9.7°
Enters shadow 04:27:54 - 254° (WSW) 2,029 ? -9.7°
